[Iaude] MPEC L130: 2024 JD41 [a=1.50,e=0.16,i=22.3,H=21.4]
    mpec at cfa.harvard.edu 
    mpec at cfa.harvard.edu
       
    Thu Jun 13 03:39:54 EDT 2024
    
    
  
M.P.E.C. 2024-L130                                Issued 2024 June 13, 07:38 UT
     The Minor Planet Electronic Circulars contain information on unusual
         minor planets, routine data on comets and natural satellites,
         and occasional editorial announcements.  They are published
    on behalf of Division F of the International Astronomical Union by the
          Minor Planet Center, Smithsonian Astrophysical Observatory,
                          Cambridge, MA 02138, U.S.A.
			  
             Prepared using the Tamkin Foundation Computer Network
                              MPC at CFA.HARVARD.EDU
            URL https://www.minorplanetcenter.net/    ISSN 1523-6714
                                   2024 JD41                                    
Observations:
     K24J41D* C2024 05 04.43042117 39 35.989+36 32 36.38         22.01GVEL130V00
     K24J41D  C2024 05 04.43605217 39 36.115+36 32 42.54         22.04GVEL130V00
     K24J41D  C2024 05 04.44166417 39 36.230+36 32 48.55         22.40GVEL130V00
     K24J41D  C2024 05 04.44726117 39 36.356+36 32 54.67               VEL130V00
     K24J41D  C2024 06 06.43429417 31 03.318+40 48 53.12         22.20wXEL130F52
     K24J41D  C2024 06 06.44623317 31 02.610+40 48 49.15         22.29wXEL130F52
     K24J41D  C2024 06 06.45818917 31 01.860+40 48 44.71         21.91wXEL130F52
     K24J41D  C2024 06 06.47020717 31 01.142+40 48 40.41         21.85wXEL130F52
     K24J41D 1C2024 06 12.34960517 25 38.604+39 53 39.88         22.31GVEL130G96
     K24J41D 1C2024 06 12.35429517 25 38.240+39 53 37.00         22.07GVEL130G96
     K24J41D 1C2024 06 12.35898917 25 37.974+39 53 33.00         21.29GVEL130G96
     K24J41D KC2024 06 12.38804617 25 36.059+39 53 09.71         21.97GVEL130I52
     K24J41D KC2024 06 12.39579617 25 35.562+39 53 03.73         22.40GVEL130I52
     K24J41D KC2024 06 12.40354217 25 35.090+39 52 57.54               VEL130I52
     K24J41D KC2024 06 13.19723817 24 50.85 +39 42 24.7          21.7 GVEL130H21
     K24J41D KC2024 06 13.20301817 24 50.47 +39 42 19.9          22.1 GVEL130H21
     K24J41D KC2024 06 13.20619717 24 50.24 +39 42 17.1          21.6 GVEL130H21
Observer details:
F52 Pan-STARRS 2, Haleakala.  Observers J. Herman, T. Lowe, P. Minguez, A.
    Schultz, I. Smith.  Measurers K. Chambers, T. de Boer, J. Fairlamb, H.
    Gao, M. Huber, C.-C. Lin, E. Magnier, Y. Ramanjooloo, R. Wainscoat, R.
    Weryk.  1.8-m Ritchey-Chretien + CCD.
G96 Mt. Lemmon Survey.  Observer G. J. Leonard.  Measurers T. Beuden, V. F.
    Carvajal, D. Fay, J. B. Fazekas, D. C. Fuls, A. R. Gibbs, A. D. Grauer, H.
    Groeller, J. K. Hogan, R. A. Kowalski, S. M. Larson, G. J. Leonard, D.
    Rankin, R. L. Seaman, F. C. Shelly, K. W. Wierzchos.  1.5-m reflector +
    10K CCD.
H21 Astronomical Research Observatory, Westfield.  Observer R. Holmes.
    Measurers T. Linder, R. Holmes, L. Horn.  1.3-m f/4.0 astrograph + CCD.
I52 Steward Observatory, Mt. Lemmon Station.  Observer J. B. Fazekas.
    Measurers T. Beuden, V. F. Carvajal, D. Fay, J. B. Fazekas, D. C. Fuls, A.
    R. Gibbs, A. D. Grauer, H. Groeller, J. K. Hogan, R. A. Kowalski, S. M.
    Larson, G. J. Leonard, D. Rankin, R. L. Seaman, F. C. Shelly, K. W.
    Wierzchos.  1.0-m prime focus + CCD.
V00 Kitt Peak-Bok.  Observer R. A. Mastaler.  Measurers M. J. Brucker, C. E.
    Woodward, T. Beuden, V. F. Carvajal, D. Fay, J. B. Fazekas, D. C. Fuls, A.
    R. Gibbs, H. Groeller, J. K. Hogan, R. A. Kowalski, S. M. Larson, C.
    Lejoly, G. J. Leonard, R. A. Mastaler, R. S. McMillan, D. Rankin, R. L.
    Seaman, F. C. Shelly, K. W. Wierzchos.  2.25-m reflector + 4x4K mosaic
    CCD.
Orbital elements:
2024 JD41                                                Earth MOID = 0.2567 AU
Epoch 2024 Mar. 31.0 TT = JDT 2460400.5                 Bell                    
M 294.91757              (2000.0)            P               Q                  
n   0.53803829     Peri.  158.02440     +0.41813309     +0.86840923             
a   1.4971337      Node   135.45680     -0.87971196     +0.46024789             
e   0.1578073      Incl.   22.33059     -0.22643229     -0.18449200             
P   1.83           H   21.48          G   0.15           U   5                  
Residuals in seconds of arc
240504 V00  0.0   0.0     240606 F52  0.1-  0.0     240612 I52  0.1-  0.0
240504 V00  0.0   0.0     240606 F52  0.1+  0.1+    240612 I52  0.2+  0.0
240504 V00  0.0   0.0     240612 G96  0.3+  0.4-    240613 H21  0.0   0.3+
240504 V00  0.0   0.0     240612 G96  0.3-  0.4+    240613 H21  0.1-  0.2+
240606 F52  0.2-  0.2-    240612 G96  0.1+  0.1+    240613 H21  0.3-  0.0
240606 F52  0.1+  0.1+    240612 I52  0.2-  0.2-
Ephemeris:
2024 JD41                a,e,i = 1.50, 0.16, 22                  q = 1.2609
Date    TT    R. A. (2000) Decl.     Delta      r    Elong.  Phase     V
2024 05 14    17 41 56.2 +39 03 25   0.5602  1.3395   113.9    43.6    22.5
...
2024 05 29    17 37 21.3 +41 03 43   0.5102  1.3136   115.1    44.3    22.3
...
2024 06 06    17 31 25.5 +40 51 18   0.4837  1.3015   116.0    44.5    22.2
...
2024 06 12    17 25 58.9 +39 58 01   0.4641  1.2933   116.9    44.5    22.1
2024 06 13    17 25 01.8 +39 45 07   0.4608  1.2920   117.0    44.4    22.1
2024 06 14    17 24 04.4 +39 31 00   0.4576  1.2908   117.2    44.4    22.0
...
2024 06 20    17 18 20.8 +37 40 09   0.4388  1.2837   118.3    44.2    21.9
...
2024 06 28    17 11 22.3 +33 58 32   0.4155  1.2756   119.9    43.7    21.8
...
2024 07 13    17 03 44.5 +23 02 49   0.3826  1.2651   122.7    42.5    21.6
M. P. C. Staff               (C) Copyright 2024 MPC           M.P.E.C. 2024-L130
    
    
More information about the Iaude
mailing list